Wind_Speed
7 8 9 10 11 12 12 13 13 13 13 14 15 16 18 19 19 19 19 19 20 21 21 22 23 23 23 23 23 23 23 22 22 21 20 19 18 16 15 13 11 10 8 7
6 6 7 9 10 11 12 12 13 13 14 14 14 15 17 18 19 19 19 19 19 20 21 22 23 23 23 24 24 24 24 23 23 22 22 21 20 18 16 14 12 10 9 7
5 6 7 7 8 9 10 12 12 13 14 14 15 15 17 17 18 19 20 19 19 20 21 21 22 23 23 24 24 24 24 24 24 24 24 23 21 19 18 16 14 11 9 7
3 4 4 6 7 8 9 10 11 12 12 13 14 16 17 17 18 18 19 19 20 20 20 21 22 22 23 23 24 25 25 25 25 25 25 24 23 21 20 18 15 13 10 8
1 2 3 5 6 7 8 9 10 11 11 12 14 15 16 17 18 18 18 19 19 20 20 21 22 22 23 23 24 25 25 26 26 26 26 26 24 23 22 20 18 15 12 10
3 3 4 5 6 7 8 9 10 11 11 12 13 14 15 16 17 17 17 18 18 19 20 20 21 22 23 23 24 24 25 26 26 26 26 26 25 24 23 22 20 18 15 12
6 6 6 6 7 7 7 8 10 10 11 12 13 14 15 16 16 17 17 17 18 18 19 19 20 21 22 23 23 24 25 25 26 26 25 25 25 25 24 23 22 20 17 14
9 9 9 9 9 9 10 10 11 11 12 12 13 14 15 16 16 16 17 17 18 18 18 19 19 20 21 21 22 23 24 25 25 25 25 25 25 25 25 24 23 21 19 17
12 11 11 11 12 12 12 12 13 13 13 14 14 15 15 15 16 16 17 17 17 18 18 18 18 19 20 20 21 21 23 24 24 24 24 24 25 25 25 24 23 22 21 18
15 14 13 14 14 15 15 15 15 16 16 16 16 16 16 16 16 16 17 17 17 17 17 17 17 18 18 19 19 20 21 22 23 23 23 23 24 24 24 24 23 23 21 20
18 17 16 16 17 17 18 18 18 18 18 18 18 18 17 17 17 17 17 17 17 17 17 17 17 17 17 18 18 18 19 19 20 21 22 22 22 23 23 23 22 23 22 21
19 19 19 19 20 20 20 21 21 21 21 21 20 20 19 19 19 19 19 18 18 17 17 17 17 16 16 16 17 17 17 17 18 19 19 20 20 21 21 22 21 21 21 21
22 22 23 23 23 23 23 23 23 24 24 23 23 22 22 22 21 21 21 20 20 19 18 18 17 16 16 16 16 16 16 16 16 16 17 17 18 18 18 19 20 19 19 19
26 27 27 27 27 27 27 27 27 27 27 27 27 26 25 25 24 24 23 23 22 22 21 20 19 18 17 16 15 15 15 15 14 14 14 15 15 15 16 16 16 17 17 17
32 32 32 32 33 33 32 32 32 32 31 31 31 30 30 29 27 27 26 26 25 24 24 23 21 20 19 18 17 15 15 14 14 13 13 12 12 12 12 13 13 13 14 14
37 38 38 39 39 39 39 38 38 37 37 36 35 35 34 33 32 31 30 30 29 28 27 26 25 24 22 21 19 18 16 15 14 13 12 12 11 10 9 9 10 10 10 10
40 42 43 44 45 46 46 45 44 44 43 42 41 41 40 38 37 35 35 35 33 31 30 29 29 28 26 24 23 21 19 18 16 15 14 12 11 10 9 7 7 7 7 7
42 44 45 47 48 49 49 50 50 49 48 48 47 46 45 44 43 41 40 40 38 36 34 34 33 32 30 29 27 25 23 22 20 18 16 15 13 12 10 9 7 6 4 3
42 43 44 45 46 47 48 49 50 51 51 51 51 51 50 49 48 47 46 45 43 40 39 39 38 36 34 33 31 30 28 26 24 22 20 18 16 15 13 12 10 9 7 6
40 41 42 43 44 45 47 48 49 50 51 51 52 52 52 52 52 51 50 49 47 46 45 44 43 41 38 37 36 34 32 30 28 26 24 23 21 19 17 16 14 12 11 10
39 40 41 42 43 44 46 47 48 50 51 52 53 54 54 54 54 54 54 53 51 51 50 49 48 45 43 42 40 38 37 35 33 31 29 27 25 23 22 20 18 17 15 14
41 42 43 45 46 48 49 51 52 53 54 55 55 56 56 57 57 57 57 57 55 55 55 53 52 50 48 47 45 43 41 39 37 35 34 32 30 28 26 24 23 21 20 18
44 46 47 49 50 52 53 55 56 57 58 59 59 60 60 60 60 60 59 60 59 58 58 57 56 55 53 52 50 48 45 43 41 40 38 36 35 33 31 29 27 26 24 22
48 50 52 54 55 57 58 60 61 62 63 64 64 65 64 64 63 64 63 62 61 61 61 60 60 59 58 57 55 53 50 48 46 44 43 41 39 37 35 34 32 30 28 27
52 54 56 58 60 62 63 64 65 66 66 67 67 68 68 67 66 65 64 64 64 63 63 63 64 63 63 62 60 58 55 53 51 49 47 45 44 42 40 38 36 35 33 31
55 58 60 61 63 64 66 67 68 68 69 68 68 68 67 67 67 67 66 65 64 64 64 64 65 66 66 65 64 62 60 58 56 54 52 50 48 46 44 42 41 39 37 36
58 60 61 63 64 65 66 67 68 69 69 68 68 67 66 66 65 64 63 63 62 62 63 64 65 65 67 68 67 66 65 63 61 59 56 54 53 51 49 47 45 43 41 40
Wind_Direction
73 67 64 61 57 51 46 42 40 37 34 31 29 26 23 22 21 20 19 20 21 20 20 20 20 20 21 21 21 19 18 17 15 13 10 7 4 1 355 347 336 326 312 282
69 58 52 53 52 49 46 41 39 37 34 28 24 21 20 21 21 20 19 20 20 20 20 20 20 20 20 20 19 18 17 16 14 12 10 7 5 3 359 353 343 331 315 300
61 49 43 42 43 43 42 39 35 32 29 26 22 20 20 19 19 19 20 20 20 19 19 19 19 18 18 18 18 17 16 15 15 13 11 9 6 4 2 359 354 346 331 314
61 46 34 35 34 35 35 32 28 25 22 20 18 17 18 18 18 17 17 18 20 20 19 17 17 16 16 16 16 16 15 15 15 14 12 11 10 9 7 5 2 358 350 336
25 12 9 14 15 16 18 20 18 16 14 12 12 12 13 14 13 12 13 15 17 18 17 17 16 15 15 16 15 15 15 15 15 15 15 15 15 15 14 13 11 9 3 356
285 302 316 335 345 352 358 1 4 5 4 1 1 3 5 6 7 7 7 9 12 14 14 14 14 14 14 15 15 15 15 16 16 16 17 18 19 19 18 18 19 18 15 12
274 282 292 300 309 319 327 337 340 345 348 350 351 353 354 356 358 359 1 3 6 8 9 10 10 11 12 14 15 15 16 16 17 18 19 20 21 22 22 22 23 21 20 20
273 278 283 290 296 303 308 314 319 323 328 332 336 340 343 345 348 350 353 357 359 1 2 4 5 7 9 10 12 13 15 16 18 19 20 21 23 23 24 25 26 25 25 26
268 276 284 289 293 297 301 305 307 310 315 319 322 325 329 333 336 340 344 348 351 353 354 356 358 1 3 6 8 11 13 15 17 19 20 22 23 24 25 27 28 28 29 32
271 275 281 286 290 293 297 300 302 304 306 308 311 314 317 319 324 328 333 337 341 344 347 349 350 353 356 359 2 5 9 12 14 17 19 21 23 25 27 28 29 30 32 34
276 281 284 285 288 291 293 294 295 298 300 301 303 305 307 309 312 316 320 324 328 331 335 338 341 344 348 351 354 357 1 5 10 13 16 19 22 25 28 30 31 33 35 37
277 281 282 283 284 286 288 289 290 291 293 295 297 298 300 301 303 305 307 311 315 318 321 324 328 332 336 341 345 349 353 357 2 6 11 15 19 23 27 30 32 34 38 43
278 278 279 281 282 283 284 286 288 289 290 291 292 294 294 295 296 297 299 301 303 305 307 310 314 318 322 327 333 338 343 347 352 358 4 9 15 20 24 29 33 36 39 45
277 278 279 280 281 282 283 284 285 286 287 288 289 289 290 291 291 292 292 293 294 295 297 299 301 304 307 311 317 323 329 335 340 346 353 0 7 15 21 26 31 36 39 44
276 277 278 279 279 280 280 281 282 283 283 284 285 286 286 287 288 288 288 288 288 288 289 291 292 293 295 298 301 305 311 318 325 331 337 345 354 3 12 19 25 31 37 43
272 274 275 276 277 278 278 278 279 279 280 280 281 281 282 283 283 283 283 283 284 284 284 285 285 285 286 287 288 291 294 298 304 311 317 324 332 342 352 4 15 23 32 40
268 270 272 273 275 276 277 277 277 277 277 278 278 278 278 279 279 279 279 279 280 281 281 280 279 278 279 280 280 281 282 284 287 291 297 301 306 313 322 332 346 3 18 32
268 269 270 271 272 274 275 277 278 278 278 277 277 276 276 276 276 276 276 276 277 277 277 276 275 275 275 275 274 274 274 274 275 276 279 283 287 290 294 299 305 312 325 347
269 270 271 272 273 274 275 276 277 278 278 278 278 277 276 275 274 273 273 273 273 273 273 272 272 272 272 271 270 270 269 269 268 268 268 269 271 274 276 277 278 280 282 281
272 273 274 274 275 275 276 277 277 278 278 278 278 277 277 276 275 273 272 270 270 269 268 268 269 269 268 268 267 266 266 265 264 264 263 262 262 263 264 266 266 265 264 263
277 278 278 279 279 280 280 280 281 280 280 280 280 279 278 276 275 274 272 270 267 266 265 265 266 266 265 264 264 263 262 262 261 260 259 258 258 257 257 258 259 258 257 256
281 283 284 284 284 284 284 284 284 284 283 282 282 281 280 278 276 274 273 271 267 264 263 262 261 261 261 261 261 260 260 259 258 257 256 256 255 254 253 253 254 254 254 254
284 286 286 287 287 287 287 287 286 286 285 284 283 282 281 279 277 275 272 271 268 265 262 260 258 257 257 257 257 257 257 256 256 255 254 253 253 252 251 251 251 251 251 251
286 287 288 289 289 289 289 289 289 288 287 286 285 283 282 280 278 276 273 270 267 265 262 259 257 255 253 253 253 253 253 253 253 252 252 252 251 250 250 249 249 249 249 249
288 289 290 290 291 291 291 291 290 290 289 288 287 285 284 282 279 277 274 271 268 264 261 258 255 253 251 250 250 250 249 249 250 250 249 249 249 249 248 248 248 248 248 248
290 291 292 292 292 292 292 292 292 291 290 290 289 287 286 283 281 278 275 271 268 264 260 256 253 251 249 248 247 247 247 246 246 247 247 247 247 247 247 247 247 247 248 248
293 293 294 294 295 295 295 294 294 293 292 291 290 289 287 285 282 279 276 272 267 262 258 254 251 249 247 246 245 244 244 244 244 244 245 245 245 246 246 246 246 247 247 247
Height
5892 5890 5888 5886 5884 5882 5879 5877 5875 5872 5869 5866 5863 5860 5856 5852 5848 5845 5841 5836 5832 5827 5823 5818 5813 5808 5803 5798 5793 5788 5783 5778 5773 5768 5763 5758 5754 5750 5746 5742 5739 5737 5736 5735
5892 5891 5889 5887 5885 5882 5880 5878 5876 5873 5870 5867 5864 5861 5857 5854 5850 5846 5842 5838 5833 5829 5824 5820 5815 5810 5805 5800 5795 5790 5785 5779 5774 5769 5764 5758 5753 5749 5745 5741 5738 5735 5733 5732
5893 5891 5890 5888 5886 5884 5881 5879 5877 5874 5872 5868 5865 5862 5858 5855 5851 5847 5843 5839 5835 5830 5826 5821 5817 5812 5807 5802 5797 5792 5786 5781 5775 5770 5764 5759 5753 5748 5744 5739 5736 5733 5730 5729
5893 5892 5891 5891 5887 5884 5882 5880 5877 5875 5872 5869 5866 5863 5859 5856 5852 5848 5845 5840 5836 5832 5827 5823 5818 5814 5809 5804 5798 5793 5788 5782 5777 5771 5765 5759 5753 5748 5743 5738 5734 5731 5728 5726
5892 5891 5890 5889 5887 5884 5882 5880 5878 5875 5872 5870 5866 5863 5860 5856 5853 5849 5846 5842 5837 5833 5829 5825 5820 5815 5810 5805 5800 5795 5790 5784 5778 5772 5766 5760 5754 5749 5744 5739 5734 5730 5728 5725
5891 5890 5889 5889 5886 5883 5883 5880 5878 5875 5872 5870 5867 5864 5861 5857 5854 5850 5846 5842 5838 5834 5830 5826 5822 5817 5812 5807 5802 5797 5792 5786 5780 5775 5769 5763 5757 5751 5746 5741 5736 5731 5728 5725
5888 5887 5886 5886 5884 5883 5882 5880 5877 5874 5872 5869 5866 5864 5861 5857 5854 5851 5847 5843 5839 5835 5831 5827 5823 5818 5814 5809 5804 5799 5794 5788 5783 5777 5771 5766 5760 5754 5749 5744 5738 5734 5730 5726
5885 5884 5886 5883 5881 5881 5879 5877 5875 5873 5871 5868 5866 5863 5860 5857 5854 5850 5847 5843 5839 5835 5832 5828 5824 5820 5815 5811 5806 5801 5796 5791 5785 5780 5774 5769 5763 5758 5752 5747 5742 5737 5733 5729
5882 5883 5881 5879 5878 5877 5876 5874 5872 5870 5869 5866 5864 5861 5859 5856 5853 5850 5846 5843 5839 5836 5832 5828 5824 5820 5816 5812 5808 5803 5798 5793 5788 5783 5778 5772 5767 5762 5756 5751 5746 5741 5736 5732
5877 5877 5877 5875 5874 5873 5872 5870 5868 5867 5865 5863 5861 5859 5856 5854 5851 5848 5845 5842 5838 5835 5832 5828 5825 5821 5817 5813 5809 5805 5800 5795 5791 5786 5781 5775 5770 5765 5760 5755 5750 5745 5740 5736
5873 5873 5872 5871 5869 5868 5867 5865 5864 5862 5860 5859 5857 5855 5853 5850 5848 5845 5842 5840 5837 5834 5831 5828 5824 5821 5817 5814 5810 5806 5802 5797 5793 5788 5783 5778 5774 5769 5764 5759 5754 5749 5745 5740
5868 5867 5867 5866 5864 5863 5862 5860 5858 5857 5855 5853 5852 5850 5848 5846 5844 5842 5839 5837 5834 5831 5829 5826 5823 5820 5816 5813 5810 5806 5802 5798 5794 5790 5786 5781 5777 5772 5767 5763 5758 5754 5750 5746
5861 5860 5860 5859 5858 5857 5855 5854 5852 5851 5849 5848 5846 5844 5843 5841 5839 5837 5835 5833 5830 5828 5825 5823 5820 5817 5815 5812 5809 5806 5802 5799 5795 5791 5788 5784 5779 5775 5771 5767 5763 5759 5755 5751
5853 5853 5852 5851 5850 5849 5848 5847 5845 5844 5842 5841 5839 5838 5837 5835 5834 5832 5830 5828 5826 5823 5821 5819 5817 5814 5812 5809 5807 5804 5801 5798 5795 5792 5788 5785 5781 5778 5774 5770 5767 5763 5760 5756
5844 5843 5843 5841 5840 5839 5839 5838 5837 5836 5834 5833 5832 5830 5829 5828 5827 5825 5823 5821 5820 5818 5816 5814 5812 5810 5808 5806 5803 5801 5799 5796 5794 5791 5788 5785 5782 5779 5776 5773 5770 5767 5764 5761
5835 5833 5832 5831 5830 5829 5828 5828 5827 5826 5825 5824 5823 5822 5821 5820 5819 5818 5816 5814 5813 5812 5810 5808 5806 5804 5803 5801 5799 5797 5795 5793 5791 5789 5787 5784 5782 5779 5777 5774 5772 5769 5766 5764
5824 5823 5821 5819 5818 5817 5816 5815 5815 5814 5814 5813 5812 5811 5811 5810 5809 5808 5807 5805 5805 5804 5802 5801 5799 5797 5796 5795 5794 5792 5790 5789 5787 5786 5784 5782 5780 5778 5776 5774 5772 5770 5768 5766
5812 5811 5809 5808 5806 5805 5803 5802 5801 5800 5800 5799 5799 5799 5798 5798 5798 5797 5796 5795 5795 5795 5794 5792 5790 5789 5789 5788 5787 5786 5785 5783 5782 5781 5780 5778 5777 5775 5774 5773 5771 5770 5768 5767
5798 5797 5796 5795 5794 5792 5791 5789 5788 5787 5785 5784 5784 5784 5784 5783 5783 5784 5784 5783 5783 5784 5783 5781 5780 5780 5780 5779 5778 5778 5777 5776 5775 5775 5774 5773 5772 5771 5770 5769 5768 5767 5766 5765
5785 5784 5783 5782 5780 5779 5777 5776 5774 5773 5771 5770 5769 5768 5768 5767 5767 5768 5768 5769 5770 5770 5769 5768 5768 5769 5769 5768 5768 5768 5768 5768 5767 5767 5767 5766 5766 5766 5765 5765 5764 5763 5763 5762
5772 5771 5770 5768 5767 5765 5763 5761 5760 5758 5756 5754 5753 5752 5751 5751 5750 5750 5750 5752 5753 5753 5754 5754 5754 5755 5756 5756 5756 5757 5757 5758 5758 5758 5758 5758 5758 5758 5758 5758 5758 5758 5758 5758
5757 5756 5755 5753 5752 5750 5748 5746 5744 5742 5740 5738 5736 5734 5733 5733 5732 5732 5731 5732 5734 5734 5736 5737 5739 5740 5741 5741 5742 5744 5745 5746 5747 5747 5748 5749 5749 5750 5750 5750 5751 5751 5751 5752
5743 5742 5740 5738 5736 5734 5731 5729 5726 5724 5721 5719 5717 5715 5714 5712 5711 5711 5712 5711 5711 5713 5715 5718 5720 5722 5723 5724 5726 5729 5731 5732 5734 5735 5736 5737 5738 5739 5740 5741 5742 5743 5744 5744
5729 5727 5725 5722 5719 5716 5714 5710 5707 5704 5701 5698 5695 5693 5692 5690 5689 5687 5687 5688 5689 5690 5692 5695 5698 5701 5703 5705 5708 5711 5714 5716 5719 5721 5723 5724 5726 5727 5729 5730 5732 5733 5734 5735
5714 5711 5708 5705 5701 5698 5694 5690 5686 5683 5679 5675 5672 5668 5666 5665 5664 5663 5662 5662 5663 5665 5668 5670 5673 5677 5680 5684 5688 5692 5695 5698 5701 5704 5707 5710 5712 5714 5716 5718 5720 5722 5723 5725
5698 5694 5691 5687 5683 5679 5674 5670 5665 5661 5656 5652 5648 5644 5641 5639 5637 5636 5635 5635 5636 5638 5641 5644 5647 5651 5656 5660 5665 5670 5674 5678 5682 5686 5690 5693 5696 5699 5702 5704 5707 5709 5711 5713
5680 5676 5672 5668 5663 5658 5653 5648 5643 5638 5633 5629 5625 5620 5617 5613 5611 5609 5608 5608 5609 5610 5613 5616 5620 5625 5630 5636 5641 5647 5652 5657 5662 5666 5670 5675 5679 5682 5686 5689 5692 5695 5697 5700